Regional Weather Roundup
Issued by NWS

Home | Current Version | Previous Version | Text Only | Print | Product List | Glossary Off
Versions: 1 2 3 4 5 6 7 8 9 10 11 12 13 14 15 16 17 18 19 20 21 22 23 24 25 26 27 28 29 30 31 32 33 34 35 36 37 38 39 40 41 42 43 44 45 46 47 48 49 50

000
ASUS45 KBOU 260907
RWRCO

WEATHER ROUNDUP FOR COLORADO
NATIONAL WEATHER SERVICE DENVER/BOULDER CO
300 AM MDT SUN APR 26 2015

NOTE: "FAIR" INDICATES FEW OR NO CLOUDS BELOW 12000 FEET WITH NO
SIGNIFICANT WEATHER AND/OR OBSTRUCTIONS TO VISIBILITY.

COZ001>005-013-030-031-261000-
...NORTHWEST COLORADO...

CITY           SKY/WX    TMP DP  RH WIND       PRES   REMARKS
CRAIG          CLOUDY    42  36  79 E5G16     29.76S
HAYDEN         CLOUDY    39  34  81 E9        29.76F
MEEKER         CLOUDY    41  36  82 S3        29.74F
MOUNT WERNER   NOT AVBL
STEAMBOAT SPGS CLOUDY    37  35  92 SW5       29.77F
WALDEN         CLOUDY    34  32  93 N6        29.82S WCI  29
$$

COZ006>008-011-261000-
...WEST CENTRAL VALLEYS...

CITY           SKY/WX    TMP DP  RH WIND       PRES   REMARKS
GRAND JUNCTION MOCLDY    43  42  97 N8        29.71F
MONTROSE       CLOUDY    41  39  93 E5        29.75F
EAGLE          CLOUDY    39  39 100 E3        29.82S
RIFLE          MOCLDY    42  40  92 CALM      29.74F
DELTA          NOT AVBL
NUCLA          CLOUDY    43  37  81 CALM      29.77F
$$

COZ017>023-064>068-261000-
...SOUTHWEST COLORADO...

CITY           SKY/WX    TMP DP  RH WIND       PRES   REMARKS
DURANGO        LGT RAIN  39  36  89 SE7       29.80F
CORTEZ         RAIN      39  38  96 S7        29.78S FOG
PAGOSA SPRINGS CLOUDY    38  37  94 CALM      29.84S
TELLURIDE      CLOUDY    35  31  88 CALM      29.80F
WOLF CREEK PAS NOT AVBL
$$

COZ009-010-012-014-032>034-037-058>063-261000-
...CENTRAL COLORADO...

CITY           SKY/WX    TMP DP  RH WIND       PRES   REMARKS
ASPEN          CLOUDY    36  35  96 W3        29.78F
BUENA VISTA    MOCLDY    34  32  93 CALM      29.81F
COPPER MTN     MOCLDY    32  21  64 S22       29.89F WCI  19
BERTHOUD PASS  HAZE      23  14  68 E21       29.93S VSB 1/4 WCI   8
COTTONWOOD PAS MOCLDY    36  28  75 CALM      29.85F
GUNNISON       MOCLDY    36  30  80 N7        29.80F
KREMMLING      CLOUDY    36  32  87 CALM      29.82S
LEADVILLE      MOCLDY    27  27 100 NE3       29.83F
MONARCH PASS   SNOW      27  23  86 MISG      30.01F VSB<1/4
SALIDA         MOCLDY    41  34  75 CALM      29.86F
SUNLIGHT       CLOUDY    32  30  93 CALM      29.88F
WILKERSON PASS CLOUDY    30  27  86 S5        29.93F WCI  25
$$

COZ069>075-261000-
...SAN LUIS VALLEY/SANGRE DE CRISTO MOUNTAINS...

CITY           SKY/WX    TMP DP  RH WIND       PRES   REMARKS
ALAMOSA        CLOUDY    38  27  64 SE5       29.80F
LA VETA PASS   PTCLDY    32  27  80 S14G22    29.86F WCI  22
SAGUACHE       CLOUDY    37  30  75 W7        29.82F
$$

COZ035-036-038>040-261000-
...NORTHERN COLORADO FRONT RANGE...

CITY           SKY/WX    TMP DP  RH WIND       PRES   REMARKS
DENVER INTL AP TSTM      45  43  93 E15       29.78S
DMNS CITY PARK   N/A     47  42  82 N5        29.78F
AURORA         TSTM      45  45 100 SE5       29.79S
FRONT RANGE AP TSTM      45  43  93 E16       29.80R
ERIE MUNI ARPT CLOUDY    47  44  88 NE5       29.79S
BOULDER MUN AP DRIZZLE   46  45  93 NW3       29.79S
CENTENNIAL     LGT RAIN  45  43  93 CALM      29.79F
BROOMFIELD     LGT RAIN  46  43  87 N6        29.80R
FORT COLLINS   CLOUDY    46  43  87 NE5       29.80F
LONGMONT       DRIZZLE   50  45  83 NE5       29.81S
$$

COZ041-046-047-076>085-087-088-261000-
...PIKES PEAK/PALMER DIVIDE AND SOUTHERN FOOTHILLS...

CITY           SKY/WX    TMP DP  RH WIND       PRES   REMARKS
COLO. SPRINGS  CLOUDY    49  42  77 E3        29.80R
A. F. ACADEMY  MOCLDY    46  41  83 SE12      29.79S
ELLICOTT       MOCLDY   N/A N/A N/A SE24G31   29.74F
FALCON         CLOUDY    45  43  93 SE7       29.81R
FORT CARSON    CLOUDY    49  41  74 NE6       29.76S
LIMON          CLOUDY    48  46  93 E18G26    29.78S
MONUMENT HILL  CLOUDY    39  37  93 N6        29.81R
TRINIDAD       PTCLDY    45  26  47 W9        29.72S
$$

COZ042>045-048>051-090-091-261000-
...NORTHEAST COLORADO...

CITY           SKY/WX    TMP DP  RH WIND       PRES   REMARKS
GREELEY ARPT   CLOUDY    46  39  76 E9        29.80R
AKRON          CLOUDY    44  44 100 E22       29.81S
BURLINGTON     FOG       47  45  93 E14       29.80S VSB 1/2
WRAY           CLOUDY   N/A N/A N/A E16       29.84S
STERLING       CLOUDY    46  46 100 NE15      29.81F
HOLYOKE        CLOUDY    46  45  93 E14       29.82F FOG
FORT MORGAN    CLOUDY    43  42  95 E17G25    29.81F
$$

COZ086-089-092>099-261000-
...SOUTHEAST COLORADO...

CITY           SKY/WX    TMP DP  RH WIND       PRES   REMARKS
PUEBLO         MOCLDY    48  40  73 NE6       29.70R
LA JUNTA       MOCLDY    55  48  77 E14       29.70S
LAMAR          CLOUDY    53  50  89 E21G31    29.70S
SPRINGFIELD      N/A     51  49  92 SE22G30   29.71R
$$



USA.gov is the U.S. government's official web portal to all federal, state and local government web resources and services.